Regional Weather Roundup
Issued by NWS

Home | Current Version | Previous Version | Text Only | Print | Product List | Glossary Off
Versions: 1 2 3 4 5 6 7 8 9 10 11 12 13 14 15 16 17 18 19 20 21 22 23 24 25 26 27 28 29 30 31 32 33 34 35 36 37 38 39 40 41 42 43 44 45 46 47 48 49 50

000
ASUS43 KDMX 270006
RWRIA

WEATHER ROUNDUP FOR IOWA
NATIONAL WEATHER SERVICE DES MOINES IA
700 PM CDT SAT MAY 26 2018

NOTE: "FAIR" INDICATES FEW OR NO CLOUDS BELOW 12,000 FEET WITH NO
SIGNIFICANT WEATHER AND/OR OBSTRUCTIONS TO VISIBILITY.

* - THESE STATIONS ARE NOT NWS STATIONS...THUS NOT UNDER NWS
QUALITY CONTROL.  THEY ALSO DO NOT REPORT WEATHER SUCH
AS PRECIPITATION OR FOG.

IAZ001>003-012>014-020>022-031>034-043>046-270100-
   NORTHWEST IOWA

CITY           SKY/WX    TMP DP  RH WIND       PRES   REMARKS
CARROLL *      SUNNY     97  45  16 N6        29.73S HX  93
CHEROKEE *     SUNNY     92  54  27 NW3       29.74R HX  90
DENISON *      SUNNY     95  48  20 CALM      29.75S HX  91
LE MARS *      SUNNY     97  48  19 W6        29.73S HX  93
ORANGE CITY *  SUNNY     93  52  24 CALM      29.75S HX  90
SHELDON *      SUNNY     95  48  20 W13       29.73S HX  91
SIOUX CITY     SUNNY     94  57  28 NE7       29.72S HX  92
6HR MIN TEMP:  92; 6HR MAX TEMP:  97;

SPENCER        SUNNY     93  54  26 N10       29.74R HX  91
6HR MIN TEMP:  92; 6HR MAX TEMP:  96;

STORM LAKE *   SUNNY     93  46  20 NW9       29.75S HX  89
$$

IAZ055>058-069>071-079>083-090>094-270100-
   SOUTHWEST IOWA

CITY           SKY/WX    TMP DP  RH WIND       PRES   REMARKS
ATLANTIC *     SUNNY     95  50  21 N8        29.73S HX  92
AUDUBON *      SUNNY     93  43  17 NW3       29.76S HX  89
CLARINDA *     MOSUNNY   95  61  31 SE6       29.74S HX  95
COUNCIL BLFS * SUNNY     93  57  29 CALM      29.74S HX  92
CRESTON *      SUNNY     93  63  36 SE9       29.76S HX  94
HARLAN  *      SUNNY     95  50  21 N7        29.77S HX  92
LAMONI         SUNNY     90  71  53 SE3       29.75S HX  96
6HR MIN TEMP:  88; 6HR MAX TEMP:  93;

RED OAK *      SUNNY     97  54  23 MISG      29.73R HX  94
SHENANDOAH *   SUNNY     97  52  21 NW6       29.73R HX  94
$$

IAZ047>049-059>061-072>074-084-270100-
   CENTRAL IOWA

CITY           SKY/WX    TMP DP  RH WIND       PRES   REMARKS
AMES           SUNNY     90  68  48 SE6       29.71S HX  94
6HR MIN TEMP:  89; 6HR MAX TEMP:  94;

ANKENY *       SUNNY     91  63  38 S7        29.72S HX  92
BOONE *        SUNNY     93  50  22 CALM      29.72S HX  90
CHARITON *     SUNNY     93  59  31 CALM      29.74S HX  92
DES MOINES     MOSUNNY   92  63  38 S8        29.71S HX  93
6HR MIN TEMP:  91; 6HR MAX TEMP:  96;

GRINNELL*      SUNNY     87  64  46 SE10      29.75S HX  88
KNOXVILLE *    SUNNY     90  63  40 S7        29.72S HX  90
MARSHALLTOWN   SUNNY     88  67  49 S14       29.72R HX  91
6HR MIN TEMP:  88; 6HR MAX TEMP:  95;

NEWTON *       SUNNY     93  61  33 S7        29.72S HX  93
PELLA *        SUNNY     91  64  41 SE5       29.74S HX  92
PERRY *        FAIR      93  32  11 NW5       29.72S HX  88
$$

IAZ004>006-015-016-023>025-035-036-270100-
   NORTH CENTRAL IOWA

CITY           SKY/WX    TMP DP  RH WIND       PRES   REMARKS
ALGONA *       SUNNY     93  50  22 N6        29.73S HX  90
CLARION *      SUNNY     93  45  18 NW7       29.74R HX  89
ESTHERVILLE    SUNNY     90  53  28 N9        29.73S HX  87
6HR MIN TEMP:  88; 6HR MAX TEMP:  92;

FORT DODGE *   SUNNY     93  53  25 N6        29.74S HX  90
MASON CITY     SUNNY     88  60  38 W6        29.74S HX  87
6HR MIN TEMP:  88; 6HR MAX TEMP:  93;

FOREST CITY *  FAIR      88  54  31 MISG        N/A  HX  86
WEBSTER CITY * SUNNY     95  45  17 N12       29.71S HX  91
IOWA FALLS *   FAIR      93  56  28 NE3       29.74S HX  91
$$

IAZ007>011-017>019-026>030-037>042-050>054-066-270100-
   NORTHEAST IOWA

CITY           SKY/WX    TMP DP  RH WIND       PRES   REMARKS
CEDAR RAPIDS   FAIR      88  66  48 S7        29.73S HX  90
6HR MIN TEMP:  85; 6HR MAX TEMP:  90;

CHARLES CITY * FAIR      91  61  35 SE5       29.73S HX  91
CLINTON *        N/A     89  64  43 CALM      29.75S HX  90
DECORAH *      FAIR      88  66  48 S7        29.72S HX  90
DUBUQUE        FAIR      85  66  53 S7        29.76S HX  87
6HR MIN TEMP:  83; 6HR MAX TEMP:  88;

MONTICELLO *   FAIR      90  63  40 CALM      29.74R HX  90
OELWEIN *      FAIR      88  66  48 SE5       29.74S HX  90
WATERLOO       FAIR      87  66  49 S7        29.71S HX  89
6HR MIN TEMP:  86; 6HR MAX TEMP:  93;

$$

IAZ064-065-067-068-078-270100-
   EAST CENTRAL IOWA

CITY           SKY/WX    TMP DP  RH WIND       PRES   REMARKS
DAVENPORT      FAIR      88  63  43 W7        29.76S HX  89
6HR MIN TEMP:  84; 6HR MAX TEMP:  92;

IOWA CITY      FAIR      89  67  47 S6        29.74F HX  92
6HR MIN TEMP:  86; 6HR MAX TEMP:  91;

MT. PLEASANT * CLOUDY    86  72  62 CALM      29.75R HX  92
MUSCATINE *    FAIR      86  73  66 CALM      29.74S HX  93
QUAD CITIES    FAIR      89  64  43 NW3       29.73S HX  90
6HR MIN TEMP:  87; 6HR MAX TEMP:  93;

$$

IAZ062-063-075>077-085>089-095>099-270100-
   SOUTHEAST IOWA

CITY           SKY/WX    TMP DP  RH WIND       PRES   REMARKS
BURLINGTON     CLOUDY    84  72  67 S3        29.74S HX  89
6HR MIN TEMP:  83; 6HR MAX TEMP:  93;

FAIRFIELD *    CLOUDY    88  68  51 E10       29.74S HX  91
FORT MADISON * CLOUDY    86  66  51 S6        29.76S HX  88
KEOKUK *       CLOUDY    79  68  69 S9G17     29.75R HX  81
OSKALOOSA *    FAIR      89  62  40 SE8       29.74S HX  89
CENTERVILLE *    N/A     91  66  43 CALM      29.76F HX  94
OTTUMWA        MOSUNNY   88  72  58 E7        29.74S HX  94
6HR MIN TEMP:  85; 6HR MAX TEMP:  93;

WASHINGTON *   CLOUDY    90  66  45 CALM      29.76S HX  92
$$

ABBREVIATIONS USED IN REMARKS
   TC - TEMPERATURES IN CELSIUS
  WCI - WIND CHILL INDEX
   HX - HEAT INDEX
  VSB - VISIBILITY
$$




USA.gov is the U.S. government's official web portal to all federal, state and local government web resources and services.